Temperature
1 2 2 1 1 1 1 1 1 2 2 2 2 2 2 2 1 1 1 0 0 0 0 1 1 1 1 2 2 3 3 3 3 4 4 4 4 4 4 4 4 4 4 4
0 2 1 1 0 1 1 1 1 1 1 2 2 2 1 1 0 -0 -0 -1 -1 -1 -0 0 0 1 1 1 1 2 2 2 3 3 3 3 3 3 3 3 3 3 3 3
-0 1 1 -1 -1 -0 -0 0 -0 -0 0 1 0 0 0 -0 -1 -1 -1 -1 -1 -1 -1 -0 -0 0 0 1 1 1 1 2 2 2 3 3 3 3 3 3 3 3 3 3
-0 -0 -1 -1 0 -0 -0 -0 -0 -0 -0 -0 -0 -0 -0 -1 -1 -1 -2 -2 -2 -2 -1 -1 -0 -0 -0 0 0 1 1 1 1 2 2 2 2 2 2 2 2 2 2 2
-1 -1 -1 -0 -1 -1 -1 -1 -1 -1 -1 -1 -0 -0 -1 -1 -1 -2 -2 -2 -2 -2 -2 -1 -1 -1 -1 -0 -0 0 0 0 1 1 1 1 1 2 2 2 2 2 2 1
-2 -2 -2 -2 -2 -1 -1 -2 -2 -2 -2 -2 -1 -2 -2 -2 -2 -2 -2 -2 -2 -2 -2 -2 -2 -1 -1 -1 -1 -0 -0 -0 0 0 0 1 1 1 1 1 1 1 1 1
-2 -2 -3 -2 -2 -1 -2 -3 -2 -2 -2 -2 -2 -3 -2 -2 -3 -3 -3 -3 -3 -3 -3 -3 -2 -2 -2 -1 -1 -1 -1 -1 -0 -0 -0 0 0 0 0 0 0 0 0 0
-3 -3 -3 -3 -2 -3 -3 -3 -3 -3 -3 -3 -3 -3 -3 -3 -3 -3 -3 -3 -3 -3 -3 -3 -3 -2 -2 -2 -2 -2 -1 -1 -1 -1 -1 -0 -0 -0 -0 -0 -0 -0 -0 -0
-4 -4 -3 -3 -3 -3 -3 -3 -3 -4 -4 -4 -4 -4 -4 -4 -4 -4 -4 -4 -4 -4 -4 -3 -3 -3 -3 -3 -3 -2 -2 -2 -1 -1 -1 -1 -1 -1 -1 -1 -1 -1 -1 -1
-4 -4 -3 -3 -4 -4 -4 -4 -4 -4 -4 -4 -5 -5 -5 -5 -5 -5 -5 -5 -4 -4 -4 -4 -4 -4 -4 -3 -3 -2 -2 -2 -2 -2 -2 -1 -1 -1 -1 -1 -1 -2 -2 -2
-5 -4 -4 -4 -4 -4 -4 -4 -5 -5 -5 -5 -5 -5 -5 -5 -6 -6 -5 -5 -5 -5 -5 -4 -4 -4 -4 -4 -3 -3 -3 -2 -2 -2 -2 -2 -2 -2 -2 -2 -2 -2 -2 -2
-6 -5 -5 -5 -5 -5 -5 -5 -5 -5 -5 -5 -6 -6 -6 -6 -6 -6 -6 -5 -5 -5 -5 -5 -5 -4 -4 -4 -4 -3 -3 -3 -3 -3 -3 -3 -3 -2 -2 -2 -2 -2 -2 -2
-6 -5 -5 -5 -5 -6 -6 -6 -6 -6 -6 -6 -6 -6 -6 -6 -6 -6 -6 -6 -6 -6 -5 -5 -5 -5 -5 -4 -4 -4 -4 -4 -4 -4 -3 -3 -3 -3 -3 -3 -3 -3 -3 -3
-6 -6 -6 -6 -6 -6 -6 -6 -6 -6 -6 -6 -6 -6 -6 -6 -6 -6 -6 -6 -6 -6 -6 -6 -5 -5 -5 -5 -5 -5 -4 -4 -4 -4 -4 -4 -4 -4 -3 -3 -3 -3 -3 -3
-7 -7 -7 -7 -7 -7 -7 -7 -7 -7 -7 -7 -7 -7 -7 -7 -7 -7 -6 -6 -6 -6 -6 -6 -6 -6 -6 -5 -5 -5 -5 -5 -5 -4 -4 -4 -4 -4 -4 -4 -4 -4 -4 -4
-7 -7 -7 -7 -7 -7 -7 -7 -7 -7 -7 -7 -7 -7 -7 -7 -7 -7 -7 -7 -7 -7 -6 -6 -6 -6 -6 -6 -6 -5 -5 -5 -5 -5 -5 -5 -4 -4 -4 -4 -4 -4 -4 -4
-8 -8 -8 -8 -8 -8 -8 -8 -8 -8 -8 -8 -8 -8 -8 -8 -7 -7 -7 -7 -7 -7 -7 -7 -7 -7 -7 -6 -6 -6 -6 -6 -5 -5 -5 -5 -5 -5 -5 -5 -5 -5 -5 -5
-8 -8 -9 -9 -9 -9 -9 -9 -9 -9 -9 -9 -9 -8 -8 -8 -8 -8 -8 -8 -7 -7 -7 -7 -7 -7 -7 -7 -7 -6 -6 -6 -6 -6 -6 -6 -6 -6 -6 -6 -6 -6 -5 -5
-9 -9 -9 -9 -9 -9 -9 -9 -9 -9 -9 -9 -9 -9 -9 -9 -9 -9 -8 -8 -8 -8 -8 -8 -8 -7 -7 -7 -7 -7 -7 -7 -6 -6 -6 -6 -6 -6 -6 -6 -6 -6 -6 -6
-9 -9 -9 -9 -9 -9 -9 -9 -9 -9 -9 -10 -10 -9 -9 -9 -9 -9 -9 -9 -9 -9 -9 -9 -8 -8 -8 -8 -8 -8 -7 -7 -7 -7 -7 -7 -7 -7 -6 -6 -6 -6 -6 -6
-9 -9 -10 -10 -10 -10 -10 -10 -10 -10 -10 -10 -10 -10 -10 -10 -10 -10 -10 -9 -9 -9 -9 -9 -9 -8 -8 -8 -8 -8 -8 -8 -8 -7 -7 -7 -7 -7 -7 -7 -7 -7 -7 -7
-10 -10 -10 -10 -10 -10 -10 -10 -10 -10 -10 -10 -10 -10 -10 -10 -10 -10 -10 -10 -10 -10 -9 -9 -9 -9 -9 -9 -8 -8 -8 -8 -8 -8 -8 -8 -8 -8 -8 -7 -7 -7 -7 -7
-10 -10 -10 -10 -10 -10 -10 -10 -11 -11 -11 -11 -11 -11 -11 -11 -11 -11 -10 -10 -10 -10 -10 -9 -9 -9 -9 -9 -9 -9 -9 -9 -8 -8 -8 -8 -8 -8 -8 -8 -8 -8 -8 -8
-10 -10 -10 -10 -11 -11 -11 -11 -11 -11 -11 -11 -11 -11 -11 -11 -11 -11 -11 -10 -10 -10 -10 -10 -10 -10 -9 -9 -9 -9 -9 -9 -9 -9 -9 -9 -9 -9 -8 -8 -8 -8 -8 -8
-10 -10 -10 -11 -11 -11 -11 -11 -11 -11 -11 -11 -11 -11 -11 -11 -11 -11 -11 -11 -10 -10 -10 -10 -10 -10 -10 -10 -9 -9 -9 -9 -9 -9 -9 -9 -9 -9 -9 -9 -9 -9 -9 -8
-11 -11 -11 -11 -11 -12 -12 -12 -12 -12 -12 -12 -11 -11 -11 -11 -11 -11 -11 -11 -11 -10 -10 -10 -10 -10 -10 -10 -10 -10 -10 -10 -10 -9 -9 -9 -9 -9 -9 -9 -9 -9 -9 -9
-11 -11 -11 -11 -11 -12 -12 -12 -12 -12 -12 -12 -12 -12 -12 -12 -11 -11 -11 -11 -11 -11 -11 -10 -10 -10 -10 -10 -10 -10 -10 -10 -10 -10 -10 -10 -10 -10 -9 -9 -9 -9 -9 -9
Wind_Speed
6 6 3 3 4 4 2 2 2 4 5 6 7 7 7 7 7 7 6 6 6 5 5 4 4 4 3 2 2 1 1 1 2 2 3 4 4 4 4 4 4 4 5 4
5 3 1 4 5 4 4 4 4 5 5 7 7 7 7 7 8 8 7 7 6 6 6 5 5 4 4 3 2 1 1 0 1 2 3 3 4 4 4 4 4 4 4 4
3 2 2 3 4 4 3 3 4 5 6 9 9 9 7 6 7 8 8 8 7 6 6 5 5 4 3 2 2 2 2 1 1 2 3 3 3 4 4 4 4 4 4 4
3 2 2 0 3 3 3 5 6 7 8 8 7 6 5 6 7 8 8 8 7 6 6 5 5 4 4 3 3 3 3 2 2 2 2 3 3 3 3 4 4 3 3 4
2 1 2 2 5 6 3 3 8 9 9 9 8 5 4 8 8 7 7 7 6 5 5 5 5 5 4 4 4 4 4 3 2 2 2 3 3 3 2 3 3 2 3 3
2 1 2 4 8 9 4 2 9 10 9 10 8 5 6 9 9 8 7 7 6 5 6 6 5 5 5 5 4 4 4 3 3 2 2 2 2 2 2 2 2 3 2 2
2 1 1 5 9 6 3 4 10 10 8 8 6 4 6 7 7 7 7 7 7 6 5 5 5 5 5 5 5 4 4 3 3 3 2 2 2 2 2 2 2 2 2 2
2 1 2 7 6 4 4 6 8 9 8 7 7 7 8 7 7 7 8 8 7 6 6 6 6 5 5 6 5 4 4 4 4 3 2 2 2 2 2 2 3 3 2 1
1 0 3 5 4 5 6 6 7 8 8 8 8 8 8 8 8 8 8 7 7 6 6 6 6 5 5 6 5 4 4 4 3 3 3 2 2 2 2 2 2 2 2 1
1 2 4 5 6 7 7 6 7 7 7 7 7 7 8 7 7 7 7 7 7 6 6 6 6 6 6 6 5 4 4 4 3 3 3 3 2 2 1 1 1 2 1 1
3 4 6 6 8 8 8 8 8 8 7 7 7 7 7 6 6 6 7 7 6 6 6 6 6 6 6 6 5 5 4 4 4 3 3 2 2 2 1 1 1 1 1 1
4 5 6 7 8 8 9 8 8 7 7 7 6 6 7 6 6 5 6 6 6 6 6 6 6 6 7 6 6 5 4 4 3 2 2 2 2 2 4 2 3 2 1 1
5 7 6 7 7 8 7 8 8 7 6 7 6 6 6 6 5 6 6 7 6 6 6 6 6 6 6 6 6 5 4 3 2 2 2 2 1 1 2 3 3 2 1 1
6 6 6 6 7 8 8 8 7 6 6 6 5 6 5 6 6 6 6 6 6 5 5 6 6 6 7 6 6 5 4 3 3 2 2 2 1 1 1 1 2 2 2 1
7 6 6 7 7 7 7 7 7 7 7 7 6 6 6 6 6 6 6 6 6 6 6 6 6 7 7 6 6 5 4 3 3 2 2 2 1 1 1 1 1 1 2 2
9 7 6 7 8 8 8 7 7 7 8 7 7 7 7 6 6 6 6 5 5 6 6 6 6 7 7 6 6 5 4 5 4 2 2 2 1 1 1 1 1 1 1 1
7 7 7 8 8 8 7 7 6 6 7 7 7 7 7 6 6 6 6 6 5 5 5 5 6 7 6 6 5 4 4 4 5 3 2 2 1 1 1 1 0 1 1 2
5 5 6 6 7 7 7 7 7 7 7 7 7 6 6 6 6 6 6 6 6 5 5 6 6 6 6 5 5 4 3 3 3 2 2 2 2 1 1 0 1 1 1 2
5 5 6 6 6 6 6 6 6 6 6 6 7 6 6 5 5 6 6 6 6 6 6 6 9 7 6 6 7 3 4 4 3 3 3 3 3 2 1 1 1 1 1 2
6 6 6 6 6 6 6 6 6 6 6 6 6 6 6 6 6 6 6 5 4 4 5 7 7 5 5 6 7 4 4 4 4 3 3 3 3 2 2 2 2 2 2 2
6 7 6 6 6 6 6 6 6 6 6 6 6 6 6 7 6 6 5 5 5 6 7 9 6 5 5 6 7 4 4 4 4 4 3 3 3 3 3 2 2 2 2 2
6 5 6 6 6 6 6 6 5 6 6 6 6 6 6 7 7 6 5 4 5 9 7 5 5 7 9 8 4 4 4 4 4 4 4 3 3 3 3 3 3 3 3 3
5 5 5 5 6 6 6 5 5 5 5 6 6 6 6 6 6 6 6 5 5 9 7 5 7 10 11 6 4 4 4 4 4 4 4 4 4 3 3 3 3 3 3 3
4 5 5 5 5 5 6 6 5 5 5 5 5 5 5 5 5 4 4 9 10 10 6 8 11 11 9 4 4 4 4 4 4 4 4 4 4 3 4 4 4 3 3 3
5 5 5 5 5 4 5 6 6 5 5 5 5 6 5 4 5 6 6 7 10 10 6 8 11 10 6 4 4 4 4 4 5 5 4 4 4 4 4 4 4 4 3 3
4 4 4 4 4 4 4 4 5 5 6 6 6 5 5 5 5 5 5 6 7 9 7 5 6 7 5 4 5 5 5 5 6 5 4 4 4 4 4 4 5 4 4 4
4 4 4 4 4 4 4 4 5 6 6 6 7 7 6 6 6 6 6 6 6 6 5 5 5 5 5 5 5 5 5 4 5 4 4 4 4 4 4 5 4 4 4 4
Wind_Direction
296 312 339 359 358 6 352 306 288 314 328 342 346 348 355 2 7 7 9 9 4 359 358 358 6 9 11 19 5 7 111 151 194 178 165 161 157 154 157 162 164 161 160 165
286 283 36 22 13 353 337 330 321 328 327 336 341 356 2 8 6 4 1 358 354 356 357 357 0 359 359 6 11 38 73 89 161 147 140 149 154 153 154 157 156 157 163 168
285 298 346 0 350 343 339 336 328 313 317 343 357 358 0 7 10 6 358 356 354 354 352 350 353 353 351 353 15 46 65 47 87 136 135 138 149 152 158 159 156 157 165 168
289 319 278 43 22 4 359 6 6 354 349 348 343 345 4 14 9 360 356 354 354 354 350 351 352 356 3 19 49 58 59 49 52 100 124 125 130 145 150 147 146 152 164 168
303 293 276 2 4 347 328 344 5 348 344 343 343 351 10 13 6 358 357 353 350 350 354 0 2 1 13 25 42 51 44 35 43 89 114 119 124 128 128 131 133 145 154 156
299 302 320 347 338 327 314 341 358 349 344 342 347 345 337 351 356 358 1 360 358 4 11 11 5 7 23 25 31 31 22 16 19 51 88 108 121 118 111 119 129 136 135 145
299 270 2 351 335 347 14 324 339 342 341 343 342 327 326 343 353 358 1 3 4 10 13 5 6 17 21 21 13 8 15 24 33 42 59 87 101 107 117 119 125 127 131 135
324 317 309 352 5 22 333 326 339 347 348 345 339 340 348 350 354 359 1 3 4 8 9 6 12 20 18 11 2 8 21 37 39 34 36 66 88 93 110 131 132 127 125 115
345 282 329 349 354 344 343 339 341 343 344 348 350 349 351 354 357 359 359 358 359 2 6 6 11 18 17 0 359 5 24 39 37 34 34 52 82 92 100 114 119 118 126 127
316 333 337 351 359 356 352 344 341 341 341 347 346 345 349 352 355 356 356 356 358 3 6 3 4 10 11 3 1 11 26 32 33 39 41 46 53 66 83 100 120 131 146 148
303 319 332 350 354 350 347 346 345 343 344 347 345 343 347 347 349 352 352 353 357 1 4 2 5 8 7 5 12 20 19 23 23 24 33 45 45 50 62 46 98 142 163 165
294 318 315 315 333 343 341 338 337 337 343 348 346 340 342 341 345 350 351 354 355 359 2 2 8 7 6 8 11 15 13 14 15 16 18 32 46 40 45 53 53 54 60 123
298 308 306 307 325 338 336 335 337 341 343 341 342 342 339 338 344 348 350 353 352 353 354 357 3 5 4 4 4 7 6 5 7 10 13 17 30 40 19 12 25 31 34 53
327 326 319 330 330 334 335 335 337 341 341 340 338 338 338 339 343 346 345 345 347 353 357 359 3 2 359 359 360 0 360 1 4 5 5 6 7 11 20 20 8 1 354 10
340 337 318 318 328 334 337 340 343 342 343 345 346 343 342 342 340 340 342 347 353 357 358 1 2 356 354 356 356 354 354 357 356 358 358 351 349 1 10 21 18 2 14 16
324 325 329 335 338 338 341 343 341 338 340 341 342 340 339 338 336 340 346 352 354 351 351 353 352 347 351 354 350 349 353 354 351 349 349 350 353 1 4 13 20 23 6 354
330 331 335 336 336 335 336 336 334 332 335 337 334 332 334 339 341 344 347 349 345 341 346 347 343 345 349 350 348 345 344 345 347 347 344 339 343 346 344 351 349 327 317 318
315 313 316 317 320 325 331 337 339 338 336 333 333 334 335 336 335 336 338 341 343 345 349 346 344 346 347 345 343 341 341 341 340 341 342 340 336 332 326 313 298 301 309 309
332 329 331 334 335 335 337 339 339 340 341 345 346 343 338 336 335 334 337 340 341 341 343 343 342 347 344 345 348 344 344 341 340 341 342 337 340 338 324 305 298 297 297 298
342 343 346 346 348 348 343 341 343 345 346 347 345 343 343 340 338 337 338 331 329 329 332 337 340 341 343 344 346 343 343 340 338 338 340 338 334 332 323 308 297 294 291 285
346 346 348 350 349 348 346 345 346 342 342 345 343 339 334 332 333 333 333 330 332 338 340 339 342 339 339 338 338 338 338 337 335 332 330 326 325 326 322 313 304 299 294 289
341 342 343 345 344 342 343 344 342 338 339 341 339 336 334 334 336 334 323 313 323 332 338 333 331 330 334 336 333 332 333 332 330 328 324 320 317 314 312 312 307 303 299 292
331 334 338 340 338 333 333 338 337 336 335 335 333 330 328 325 326 325 325 326 328 329 332 324 324 328 333 337 331 328 327 325 322 319 316 314 312 309 306 304 302 302 298 294
328 332 331 327 327 331 333 334 334 334 327 323 324 324 324 326 326 324 316 323 329 328 328 323 328 331 336 337 326 322 319 317 314 312 311 311 310 308 304 301 299 297 293 291
321 321 322 327 331 328 326 329 332 332 332 333 331 332 331 326 319 320 321 323 326 328 325 326 329 332 335 324 321 317 313 307 306 307 304 304 303 302 300 298 296 294 291 287
316 316 314 314 315 317 324 330 330 331 333 333 332 331 332 328 321 319 320 322 322 326 326 320 320 324 323 319 318 315 311 311 312 311 308 305 302 300 298 297 296 294 293 292
315 317 320 324 326 328 328 327 326 328 329 327 323 325 328 327 327 327 325 326 327 325 323 322 321 319 317 315 313 311 310 309 309 307 305 301 299 296 295 293 293 292 292 292
Height
1470 1466 1466 1468 1467 1467 1467 1466 1467 1464 1462 1461 1460 1458 1457 1455 1454 1452 1450 1449 1447 1446 1445 1443 1442 1442 1441 1441 1442 1443 1444 1445 1447 1449 1450 1452 1454 1456 1459 1461 1463 1464 1467 1469
1471 1466 1466 1468 1470 1469 1469 1468 1468 1466 1466 1463 1461 1459 1457 1456 1455 1453 1451 1450 1448 1446 1444 1443 1441 1440 1440 1440 1440 1440 1441 1442 1444 1446 1447 1449 1451 1454 1456 1457 1459 1461 1463 1465
1472 1466 1467 1474 1475 1473 1473 1471 1471 1471 1470 1465 1462 1461 1459 1458 1456 1454 1452 1450 1448 1445 1444 1442 1441 1440 1439 1438 1438 1439 1439 1440 1442 1443 1444 1446 1449 1451 1452 1454 1456 1458 1460 1461
1474 1472 1479 1480 1474 1473 1473 1472 1472 1471 1469 1467 1465 1462 1460 1459 1457 1455 1453 1450 1448 1446 1443 1442 1440 1439 1438 1437 1437 1437 1438 1439 1440 1441 1442 1444 1446 1448 1450 1451 1453 1454 1456 1458
1477 1478 1476 1476 1475 1475 1475 1475 1475 1472 1469 1467 1464 1461 1460 1459 1457 1455 1453 1450 1448 1446 1444 1442 1440 1439 1438 1437 1436 1436 1437 1438 1438 1439 1440 1441 1443 1445 1446 1448 1450 1452 1453 1455
1480 1482 1485 1484 1479 1475 1475 1477 1476 1473 1471 1468 1465 1464 1462 1460 1457 1455 1452 1450 1447 1445 1443 1441 1440 1439 1437 1436 1436 1436 1436 1437 1437 1437 1438 1439 1440 1442 1444 1446 1447 1449 1450 1452
1484 1484 1485 1485 1480 1476 1482 1484 1478 1475 1472 1469 1467 1467 1464 1460 1457 1455 1452 1449 1447 1445 1443 1442 1440 1439 1437 1436 1436 1436 1436 1436 1437 1437 1438 1438 1439 1440 1442 1444 1445 1446 1448 1449
1486 1489 1493 1486 1482 1484 1486 1482 1479 1475 1472 1470 1467 1465 1463 1460 1457 1454 1451 1449 1447 1445 1443 1442 1441 1439 1437 1437 1436 1436 1436 1436 1436 1437 1437 1438 1438 1439 1441 1442 1443 1444 1445 1447
1493 1495 1491 1488 1487 1486 1484 1481 1478 1475 1472 1470 1467 1464 1462 1459 1457 1454 1452 1449 1447 1445 1443 1442 1441 1439 1438 1437 1436 1436 1435 1436 1436 1436 1437 1437 1438 1438 1439 1440 1441 1442 1443 1444
1492 1491 1490 1488 1487 1485 1483 1481 1478 1475 1472 1469 1466 1464 1462 1459 1457 1454 1452 1449 1447 1445 1443 1442 1441 1440 1438 1438 1437 1435 1435 1435 1436 1436 1436 1437 1437 1438 1439 1439 1440 1441 1442 1442
1493 1492 1489 1488 1487 1485 1482 1479 1477 1474 1471 1469 1466 1464 1461 1459 1457 1455 1452 1450 1448 1446 1444 1442 1441 1440 1439 1438 1437 1435 1435 1435 1435 1436 1436 1436 1437 1438 1438 1439 1440 1440 1441 1441
1497 1494 1493 1489 1487 1484 1481 1479 1476 1473 1470 1468 1466 1463 1461 1459 1457 1455 1452 1450 1448 1446 1444 1443 1441 1440 1439 1438 1437 1436 1435 1435 1435 1435 1436 1436 1436 1437 1438 1438 1439 1439 1440 1441
1495 1493 1491 1488 1486 1483 1480 1478 1475 1472 1469 1467 1465 1463 1460 1458 1456 1454 1452 1450 1448 1446 1444 1443 1442 1440 1439 1438 1437 1436 1435 1435 1435 1435 1435 1436 1436 1436 1436 1437 1438 1438 1438 1439
1493 1491 1488 1486 1484 1481 1479 1476 1473 1471 1468 1466 1464 1462 1460 1457 1455 1453 1452 1450 1449 1447 1445 1443 1441 1440 1439 1438 1437 1436 1435 1435 1435 1434 1435 1435 1435 1435 1435 1435 1436 1436 1437 1437
1492 1490 1488 1485 1482 1480 1477 1475 1472 1469 1467 1465 1463 1461 1458 1456 1454 1453 1451 1450 1448 1446 1444 1442 1441 1440 1439 1438 1437 1436 1435 1434 1434 1434 1434 1434 1434 1434 1434 1435 1435 1435 1435 1436
1490 1488 1486 1483 1480 1478 1476 1473 1471 1468 1466 1463 1461 1459 1457 1455 1454 1452 1450 1449 1447 1445 1443 1442 1440 1439 1438 1437 1436 1435 1434 1434 1434 1433 1433 1433 1433 1433 1433 1433 1434 1434 1434 1434
1489 1486 1484 1481 1479 1477 1475 1472 1470 1468 1465 1462 1460 1458 1456 1454 1452 1450 1449 1448 1446 1444 1443 1442 1440 1439 1438 1436 1435 1434 1434 1433 1433 1432 1432 1431 1431 1431 1432 1432 1432 1432 1432 1432
1488 1486 1483 1481 1478 1475 1473 1471 1469 1466 1464 1461 1459 1456 1454 1452 1451 1449 1447 1446 1444 1443 1442 1440 1439 1438 1436 1435 1434 1433 1432 1432 1431 1430 1430 1430 1430 1430 1430 1430 1430 1430 1430 1430
1486 1484 1482 1479 1477 1474 1472 1469 1467 1465 1462 1460 1457 1455 1453 1451 1450 1448 1446 1444 1442 1441 1440 1439 1438 1436 1435 1434 1433 1432 1431 1430 1430 1429 1428 1428 1428 1428 1428 1428 1428 1428 1428 1427
1484 1482 1480 1478 1475 1473 1471 1468 1466 1464 1461 1459 1456 1454 1452 1450 1449 1447 1445 1443 1442 1440 1439 1437 1436 1435 1434 1433 1432 1431 1430 1429 1428 1428 1427 1426 1426 1426 1426 1425 1425 1425 1425 1425
1483 1480 1478 1476 1474 1472 1470 1468 1465 1463 1460 1458 1456 1453 1451 1449 1448 1446 1444 1442 1441 1440 1438 1436 1435 1434 1432 1431 1430 1429 1428 1428 1427 1426 1426 1425 1424 1424 1423 1423 1423 1423 1422 1422
1482 1479 1477 1475 1473 1471 1469 1467 1464 1462 1459 1457 1455 1453 1450 1448 1446 1444 1443 1442 1440 1438 1437 1435 1434 1432 1431 1430 1429 1428 1427 1426 1425 1425 1424 1423 1422 1422 1421 1421 1420 1420 1420 1419
1481 1478 1476 1474 1472 1470 1468 1466 1463 1461 1458 1456 1454 1452 1449 1447 1445 1443 1441 1440 1439 1437 1435 1434 1432 1431 1430 1429 1427 1426 1425 1424 1423 1423 1422 1421 1420 1419 1419 1418 1418 1417 1417 1416
1479 1477 1475 1473 1471 1469 1466 1464 1462 1460 1457 1455 1453 1451 1449 1446 1444 1443 1441 1439 1437 1435 1434 1432 1431 1430 1428 1427 1426 1425 1423 1422 1421 1420 1419 1418 1418 1417 1416 1415 1415 1414 1413 1413
1478 1476 1474 1471 1469 1467 1465 1463 1460 1458 1456 1453 1452 1450 1447 1445 1443 1441 1439 1437 1436 1434 1432 1431 1429 1428 1426 1425 1424 1423 1421 1420 1419 1418 1417 1416 1415 1414 1413 1412 1412 1411 1410 1410
1476 1474 1472 1470 1468 1466 1464 1461 1459 1456 1454 1451 1449 1448 1446 1444 1442 1440 1438 1436 1434 1432 1430 1429 1427 1426 1424 1423 1422 1421 1419 1418 1417 1416 1415 1413 1412 1411 1410 1409 1409 1408 1407 1407
1474 1472 1470 1468 1466 1464 1462 1460 1458 1455 1453 1450 1447 1446 1444 1442 1440 1438 1436 1434 1432 1430 1429 1427 1425 1424 1422 1421 1420 1418 1417 1416 1414 1413 1412 1411 1410 1409 1407 1407 1406 1405 1404 1404